ONEWEB-0058, 45161

Orbit data source: Space-Track

ONEWEB-0058, 45161 is a payload satellite owned by One Web (UK) in LEO that was launched on Thu, 06 Feb 2020 UTC via a SOYUZ-2-1B launch vehicle from the Tyuratam Missile And Space Complex (TTMTR). Payloads include a variety of satellites, spacecraft, and rockets equipped with specific instruments for various scientific and technological missions. These include communications satellites like Starlink; space stations such as the ISS; scientific satellites like the Hubble; Earth observation satellites from companies like Planet Labs, Umbra, and HawkEye 360; GPS; miniature CubeSats for education and research; and military/defense satellites.

Loading next visibility...
ONEWEB-0058 details
Identifier
45161, 2020-008AG
Orbit
LEO
Last TLE update1 day ago
Origin
Flag of UKOne Web (UK)
ManufacturerOne Web
MissionOperational Commercial Communications
Bus & MotorARROW, Unknown motor
Mass148 kg wet, ~140 kg dry
Launch date (UTC)
2020-02-06 (5 years ago)
Launch vehicle
SOYUZ-2-1B
Launch site
Tyuratam Missile And Space Complex (TTMTR)
Object type
Payload
Rocket body
Debris
Shape & HBRTrap Box + 2 Pan, 5 m
Radar Cross Section2.957 m², Large (>1 m²)

Expand to show TLE details & history

TLE from 1 day ago
0 ONEWEB-0058
1 45161U 20008AG  24360.43214986 -.00000545  00000-0 -15966-2 0  9994
2 45161  87.8895 143.6114 0001366 100.7474 259.3807 13.10373583237867
Epoch: 2024-12-25T10:22Z
Definitive object data (Epoch: 2024-12-25T10:22:17.747Z)
Latitude-0.00006°
Longitude-106.38853°
Altitude1,224.793 km
Speed7.242 km/s
True Right ascension09h 34m 26s
True Declination0° 00' 00"
Sunlit
Object was in full shadow at TLE epoch
Visualization TLE readout
Latitude57.07233°
Longitude70.1637°
Altitude1,230.398 km
Speed7.245 km/s
Apparent Right ascension21h 47m 38s
Apparent Declination14° 18' 16"
Sunlit
Object is in daylight
Visualization observer readout
Local Sidereal Time10:10:28
Azimuth6.797° NNE
Elevation-35.52°
Doppler factor1
Orbital elements
Apogee altitude1,219.872 km
Perigee altitude1,217.796 km
Semi-major axis7,596.971 km
Eccentricity0.0001366
Inclination87.8895°
RAAN143.6114°
Arg. of periapsis100.7474°
True anomaly259.36532°
Mean anomaly259.3807°
Eccentric anomaly259.37301°
Mean motion3.2778 °/min
BSTAR-0.0015966
Orbital period109.83 mins
Loading maneuver chart data...
Loading historical data...
Loading historical data...
Loading historical data...
Loading historical data...
Loading historical data...
Loading historical data...
Loading historical data...

ONEWEB-0058 Visibility forecast

Observer location: undefined°, undefined

Span
Click to sort rows by Start time (UTC) header in descending order
Start Az.
Max El. time (UTC)
Max El. Az.
Max El.
End time (UTC)
End Az.
6 mins2024-12-26 12:12:13.340Z266.017° W2024-12-26 12:15:13.340Z291.596° WNW13.383°2024-12-26 12:18:13.340Z316.43° NNW
4 mins2024-12-26 20:01:13.340Z55.037° ENE2024-12-26 20:03:13.340Z71.884° E12.233°2024-12-26 20:05:13.340Z88.49° E
13 mins2024-12-26 21:48:13.340Z2.961° NNE2024-12-26 21:54:13.340Z94.917° ESE44.5°2024-12-26 22:01:13.340Z176.088° S
7 mins2024-12-26 23:40:13.340Z314.864° NW2024-12-26 23:43:13.340Z287.147° WNW17.031°2024-12-26 23:47:13.340Z252.024° W
5 mins2024-12-27 08:22:13.340Z90.417° ESE2024-12-27 08:24:13.340Z72.924° E14.191°2024-12-27 08:27:13.340Z46.989° ENE
13 mins2024-12-27 10:07:13.340Z177.484° S2024-12-27 10:13:13.340Z125.995° SE44.977°2024-12-27 10:20:13.340Z1.134° NNE
|